National Weather Service Raw Text Product

Displaying AFOS PIL: RWRFWD Received: 2018-09-22 15:00 UTC


030 
ASUS44 KFWD 221501
RWRFWD
NORTH TEXAS HOURLY WEATHER ROUNDUP
NATIONAL WEATHER SERVICE FORT WORTH TX
1000 AM CDT SAT SEP 22 2018

NOTE: "FAIR" INDICATES FEW OR NO CLOUDS BELOW 12,000 FEET WITH NO
SIGNIFICANT WEATHER AND/OR OBSTRUCTIONS TO VISIBILITY.

TXZ118-119-221600-
DALLAS/FORT WORTH METROPLEX
  
CITY           SKY/WX    TMP DP  RH WIND       PRES   REMARKS
DFW AIRPORT    LGT RAIN  74  72  93 E6        29.89R FOG              
DALLAS LOVE    CLOUDY    76  74  93 SE5       29.90R                  
FTW MEACHAM    CLOUDY    64 N/A N/A NW10      29.91R                  
DAL-EXECUTIVE  CLOUDY    75  73  93 S5        29.89S                  
FTW-ALLIANCE   CLOUDY    71  70  96 NW5       29.91R                  
FTW-NAS-JRB    CLOUDY    71  68  90 NW13      29.92R                  
FTW-SPINKS     CLOUDY    72  70  94 NW12      29.93R                  
ARLINGTON      CLOUDY    73  73 100 W7        29.91R FOG              
GRAND PRAIRIE  CLOUDY    73  73 100 W5        29.90S                  
ADDISON        RAIN      73  72  94 E8        29.92R                  
LANCASTER      CLOUDY    76  74  95 S5        29.92R                  
$$

TXZ091>094-102>105-117-120-121-131>134-221600-
NORTH CENTRAL TEXAS
  
CITY           SKY/WX    TMP DP  RH WIND       PRES   REMARKS
SHRMAN/DENISON NOT AVBL                                               
BOWIE          LGT RAIN  64  64  99 N12G20    29.99R                  
DECATUR        CLOUDY    67  66  97 NE8       29.94R FOG              
MCKINNEY       LGT RAIN  73  73 100 E7        29.92S                  
BONHAM         RAIN      72  71  99 NE10      29.97S                  
ROCKWALL       CLOUDY    74  74 100 E6        29.92S                  
TERRELL        LGT RAIN  76  73  91 SE9       29.92S                  
WAXAHACHIE     CLOUDY    74  74 100 S6        29.92R                  
CLEBURNE       PTSUNNY   68  68 100 NW10G16   29.95R FOG              
$$

TXZ083>090-098>101-113>116-127>130-139>142-154-155-221600-
WESTERN NORTH TEXAS
  
CITY           SKY/WX    TMP DP  RH WIND       PRES   REMARKS
WICHITA FALLS  LGT RAIN  61  58  90 N20       30.06R                  
WF-KICKAPOO    RAIN      60  59  95 N18G25    30.07S                  
VERNON         CLOUDY    62  56  80 N21G26    30.12S                  
ABILENE        LGT RAIN  57  57 100 N17       30.10S FOG              
CISCO          LGT RAIN  59  59 100 N15G21    30.05R VSB 1            
MINERAL WELLS  CLOUDY    65  63  93 NW13      29.96R                  
STEPHENVILLE   CLOUDY    64  62  92 CALM      30.02R                  
COMANCHE       CLOUDY    63  63 100 MISG      30.03R                  
COLEMAN        CLOUDY    61  58  90 N17G24    30.07R                  
$$

TXZ143>147-156>162-174-175-221600-
CENTRAL TEXAS
  
CITY           SKY/WX    TMP DP  RH WIND       PRES   REMARKS
WACO           CLOUDY    73  69  87 W15       29.93R                  
WACO-TSTC      CLOUDY    73  68  83 SW8       29.92S                  
WACO-MCGREGOR  CLOUDY    71  69  93 NW14      29.95R                  
HILLSBORO      CLOUDY    72  72 100 W10       29.92S                  
CORSICANA      LGT RAIN  78  76  93 SE7       29.91F                  
MEXIA          LGT RAIN  74  74  98 SE3       29.91F                  
HEARNE         FAIR      75  75  99 CALM      29.92S                  
TEMPLE         CLOUDY    69  68  96 NW12      29.96R                  
KILLEEN        NOT AVBL                                               
KILLEEN-SKYLRK CLOUDY   N/A N/A N/A NW10      29.98R                  
$$

TXZ095>097-106>112-122>126-135>138-148>153-164>167-221600-
EAST TEXAS
  
CITY           SKY/WX    TMP DP  RH WIND       PRES   REMARKS
PARIS          CLOUDY    70  70 100 NE15      29.99S FOG              
GILMER         RAIN      73  72  99 E6        29.97S                  
TYLER          LGT RAIN  76  75  97 SE8       29.94F                  
LONGVIEW       LGT RAIN  74  74 100 E5        29.96S FOG              
MARSHALL       CLOUDY    73  70  93 CALM      29.99F                  
JACKSONVILLE   CLOUDY    76  76 100 S6        29.97S                  
HENDERSON      DRIZZLE   73  73  99 CALM      29.97S                  
NACOGDOCHES      N/A     76  75  97 SE6       29.97R                  
LUFKIN         LGT RAIN  76  75  97 E6        29.96R                  
$$

SUPPLEMENTAL OBSERVATIONS (NWS FORT WORTH AREA)
  
CITY           SKY/WX    TMP DP  RH WIND       PRES   REMARKS
$$

SUPPLEMENTAL OBSERVATIONS (NWS NORMAN AREA)
  
CITY           SKY/WX    TMP DP  RH WIND       PRES   REMARKS
GOODLETT         N/A     59  51  74 N15       30.17S                  
ODELL            N/A     61  55  80 N16       30.15S                  
CROWELL          N/A     60  55  84 N20       30.15S                  
KNOX CITY        N/A     58  56  94 N15       30.14S                  
SEYMOUR          N/A     59  57  92 N16       30.11S                  
$$

SUPPLEMENTAL OBSERVATIONS (NWS SAN ANGELO AREA)
  
CITY           SKY/WX    TMP DP  RH WIND       PRES   REMARKS
WEINERT          N/A     58  57  95 N18       30.12F                  
HASKELL          N/A     58  56  93 N18G25    30.12S                  
THROCKMORTON     N/A     60  59  99 NW14G21   30.09S                  
STAMFORD         N/A     59  58  97 N18G25    30.12S                  
CLYDE            N/A     57  57 100 N15       30.11S                  
$$

SUPPLEMENTAL OBSERVATIONS (NWS SHREVEPORT AREA)
  
CITY           SKY/WX    TMP DP  RH WIND       PRES   REMARKS
$$

SUPPLEMENTAL OBSERVATIONS ARE A COLLECTION OF AUTOMATED INSTRUMENTS
THAT ARE MAINTAINED BY A VARIETY OF FEDERAL AND STATE AGENCIES. 
CERTAIN ELEMENTS...SUCH AS HUMIDITY VALUES AND SUSTAINED WIND 
SPEEDS...MAY BE APPROXIMATED.